Regional Weather Roundup
Issued by NWS

Home | Current Version | Previous Version | Graphics & Text | Print | Product List | Glossary On
Versions: 1 2 3 4 5 6 7 8 9 10 11 12 13 14 15 16 17 18 19 20 21 22 23 24 25 26 27 28 29 30 31 32 33 34 35 36 37 38 39 40 41 42 43 44 45 46 47 48 49 50
000
ASUS45 KABQ 111210
RWRNM
NEW MEXICO REGIONAL WEATHER ROUNDUP
NATIONAL WEATHER SERVICE ALBUQUERQUE NM
500 AM MST MON DEC 11 2017

NOTE: "FAIR" MEANS FEW OR NO CLOUDS BELOW 12,000 FEET AGL WITH NO
       SIGNIFICANT WEATHER OR OBSTRUCTIONS TO VISION.

      THIS PRODUCT IS RELEASED AS TWO VERSIONS.  ONE VERSION NEAR
      THE TOP OF THE HOUR CONTAINING PRELIMINARY DATA FROM ALBUQUERQUE
      AND OTHER STATIONS.  A FINAL VERSION WITH ADDITIONAL DATA IS
      ISSUED ABOUT 10 MINUTES AFTER THE HOUR.

NMZ501-503-504-510>518-111300-
NORTHWEST PLATEAU/NORTHCENTRAL MOUNTAINS

CITY           SKY/WX    TMP DP  RH WIND       PRES   REMARKS
FARMINGTON     FAIR      13   0  56 E7        30.50F WCI   3
6HR MIN TEMP:  11; 6HR MAX TEMP:  19;

LOS ALAMOS     FAIR      32  -4  21 NW7       30.47S WCI  26
SANTA FE       FAIR      24   1  36 N17       30.43F WCI  11
6HR MIN TEMP:  22; 6HR MAX TEMP:  28;

TAOS           FAIR      11  -3  53 N5        30.51F WCI   3
ANGEL FIRE     FAIR       4  -1  80 CALM      30.50S

$$
NMZ402-403-502-505>509-111300-
WESTCENTRAL MOUNTAINS/SOUTHWEST MOUNTAINS

CITY           SKY/WX    TMP DP  RH WIND       PRES   REMARKS
GALLUP         FAIR       4 -15  41 CALM      30.52S
6HR MIN TEMP:   2; 6HR MAX TEMP:  18;

GRANTS         FAIR       9 -15  32 NW8       30.53R WCI  -3
SILVER CITY    FAIR      28  -3  26 N7        30.40F WCI  20

$$
NMZ407-409-411-412-111300-
SOUTHERN DESERTS

CITY           SKY/WX    TMP DP  RH WIND       PRES   REMARKS
DEMING         FAIR      34   8  33 CALM      30.40F
6HR MIN TEMP:  30; 6HR MAX TEMP:  39;

LAS CRUCES     FAIR      32  14  47 NW6       30.40S WCI  27
HOLLOMAN AFB   FAIR      23   9  54 N6        30.44F WCI  16
ALAMOGORDO     FAIR      32   9  37 N6        30.41F WCI  26
T OR C         FAIR      34  -1  22 N6        30.42F WCI  29
6HR MIN TEMP:  31; 6HR MAX TEMP:  38;


$$
NMZ519>523-111300-
CENTRAL VALLEYS/CENTRAL HIGHLANDS

CITY           SKY/WX    TMP DP  RH WIND       PRES   REMARKS
ALBUQUERQUE    FAIR      30   3  31 N15       30.47S WCI  19
6HR MIN TEMP:  25; 6HR MAX TEMP:  34;

MORIARTY ARPT  FAIR      17   1  49 N5        30.46S WCI  10
6HR MIN TEMP:   7; 6HR MAX TEMP:  18;

CLINES CORNERS FAIR      26  -1  31 NW18      30.42  WCI  13
6HR MIN TEMP:  23; 6HR MAX TEMP:  31;

BELEN          FAIR      20  -1  39 NW8       30.47S WCI  11
6HR MIN TEMP:  18; 6HR MAX TEMP:  28;

SOCORRO        FAIR      26   3  37 NW9       30.46S WCI  17
6HR MIN TEMP:  25; 6HR MAX TEMP:  31;


$$
NMZ524>526-539-540-111300-
SOUTHCENTRAL MOUNTAINS

CITY           SKY/WX    TMP DP  RH WIND       PRES   REMARKS
RUIDOSO        FAIR      32   0  25 W9        30.43F WCI  24

$$
NMZ527>531-111300-
NORTHEAST HIGHLANDS/NORTHEAST PLAINS

CITY           SKY/WX    TMP DP  RH WIND       PRES   REMARKS
LAS VEGAS      FAIR      32  -3  22 N9        30.38F WCI  24
6HR MIN TEMP:  22; 6HR MAX TEMP:  34;

RATON          FAIR      21   0  39 N8        30.36R WCI  11
6HR MIN TEMP:  16; 6HR MAX TEMP:  23;

CLAYTON        FAIR      43  -4  14 NW14      30.28S
6HR MIN TEMP:  24; 6HR MAX TEMP:  43;


$$
NMZ532>537-111300-
EASTCENTRAL PLAINS

CITY           SKY/WX    TMP DP  RH WIND       PRES   REMARKS
SANTA ROSA     FAIR      33   4  29 NW3       30.33S
TUCUMCARI      FAIR      24   7  48 W9        30.29F WCI  14
6HR MIN TEMP:  23; 6HR MAX TEMP:  36;

CANNON AFB     FAIR      33   7  33 W14       30.33S WCI  23
6HR MIN TEMP:  32; 6HR MAX TEMP:  44;

CLOVIS AIRPORT FAIR      36   8  31 W16       30.31F WCI  26

$$
NMZ028-029-538-111300-
SOUTHEAST PLAINS

CITY           SKY/WX    TMP DP  RH WIND       PRES   REMARKS
ROSWELL        FAIR      27  10  49 N6        30.35S WCI  20
6HR MIN TEMP:  23; 6HR MAX TEMP:  35;

ARTESIA        FAIR      27   7  43 N9        30.36S WCI  17
CARLSBAD       FAIR      25  22  88 NW6       30.33F WCI  18
6HR MIN TEMP:  24; 6HR MAX TEMP:  34;

HOBBS          FAIR      27  16  63 NW7       30.33F WCI  19


$$



USA.gov is the U.S. government's official web portal to all federal, state and local government web resources and services.